This demonstration page uses our WeatherBlox Daily Observations layout. Learn more.

Left ArrowRight Arrow

Hourly Observations for November 1, 2015

Temp ( °F °C ) Dew Point ( °F °C ) Humidity (%) Winds ( mph kmh ) Pressure ( in mb ) Visibility ( mi km ) Precip ( " mm )
10:55 am 10:55 Sunny 63 17 39 4 42 42 W 10 17 29.83 1010 10 16 0.00 0.00
11:15 am 11:15 Sunny 66 19 39 4 37 37 WSW 10 17 29.80 1009 10 16 0.00 0.00
11:35 am 11:35 Sunny 66 19 39 4 37 37 SW 12 19 29.80 1009 10 16 0.00 0.00
11:55 am 11:55 Sunny 70 21 39 4 33 33 WSW 13 20 29.80 1009 10 16 0.00 0.00
12:15 pm 12:15 Sunny 70 21 39 4 33 33 WSW 12 19 29.80 1009 10 16 0.00 0.00
12:35 pm 12:35 Sunny 72 22 39 4 31 31 SW 10 17 29.80 1009 10 16 0.00 0.00
12:55 pm 12:55 Sunny 73 23 41 5 31 31 WSW 10 17 29.74 1007 10 16 0.00 0.00
1:15 pm 13:15 Sunny 73 23 39 4 29 29 W 10 17 29.74 1007 10 16 0.00 0.00
1:35 pm 13:35 Sunny 75 24 37 3 25 25 WSW 14 22 29.74 1007 10 16 0.00 0.00
1:55 pm 13:55 Sunny 75 24 39 4 27 27 WSW 14 22 29.74 1007 10 16 0.00 0.00
2:15 pm 14:15 Sunny 75 24 39 4 27 27 WSW 12 19 29.71 1006 10 16 0.00 0.00
2:35 pm 14:35 Sunny 77 25 37 3 24 24 W 15 24 29.71 1006 10 16 0.00 0.00
2:55 pm 14:55 Sunny 77 25 37 3 24 24 WSW 15 24 29.71 1006 10 16 0.00 0.00
3:35 pm 15:35 Sunny 75 24 37 3 25 25 SW 8 13 29.71 1006 10 16 0.00 0.00
3:55 pm 15:55 Sunny 75 24 37 3 25 25 SW 14 22 29.71 1006 10 16 0.00 0.00
4:15 pm 16:15 Sunny 75 24 36 2 24 24 SW 13 20 29.71 1006 10 16 0.00 0.00
4:35 pm 16:35 Sunny 75 24 37 3 25 25 SSW 10 17 29.71 1006 10 16 0.00 0.00
4:55 pm 16:55 Sunny 73 23 37 3 27 27 SW 9 15 29.71 1006 10 16 0.00 0.00
5:15 pm 17:15 Sunny 70 21 37 3 31 31 SSW 8 13 29.74 1007 10 16 0.00 0.00
5:35 pm 17:35 Clear 66 19 37 3 35 35 SSW 8 13 29.74 1007 10 16 0.00 0.00
5:55 pm 17:55 Clear 55 13 37 3 51 51 SSW 6 9 29.83 1010 10 16 0.00 0.00
6:15 pm 18:15 Clear 63 17 37 3 39 39 SSW 10 17 29.77 1008 10 16 0.00 0.00
6:35 pm 18:35 Clear 64 18 37 3 37 37 SSW 13 20 29.74 1007 10 16 0.00 0.00
6:55 pm 18:55 Clear 64 18 36 2 34 34 SSW 15 24 29.74 1007 10 16 0.00 0.00
7:15 pm 19:15 Clear 63 17 36 2 37 37 S 14 22 29.80 1009 10 16 0.00 0.00
7:35 pm 19:35 Clear 63 17 36 2 37 37 S 13 20 29.80 1009 10 16 0.00 0.00
7:55 pm 19:55 Clear 61 16 36 2 39 39 S 10 17 29.80 1009 10 16 0.00 0.00
8:15 pm 20:15 Clear 59 15 37 3 45 45 S 7 11 29.80 1009 10 16 0.00 0.00
8:35 pm 20:35 Clear 57 14 37 3 48 48 SW 10 17 29.83 1010 10 16 0.00 0.00
8:55 pm 20:55 Clear 57 14 37 3 48 48 S 10 17 29.83 1010 10 16 0.00 0.00
9:15 pm 21:15 Clear 55 13 37 3 51 51 S 9 15 29.83 1010 10 16 0.00 0.00
9:35 pm 21:35 Clear 54 12 37 3 54 54 S 9 15 29.83 1010 10 16 0.00 0.00
9:55 pm 21:55 Clear 54 12 37 3 54 54 SSE 9 15 29.83 1010 10 16 0.00 0.00
10:15 pm 22:15 Clear 48 9 36 2 62 62 S 8 13 29.85 1011 10 16 0.00 0.00
10:35 pm 22:35 Clear 48 9 36 2 62 62 S 9 15 29.85 1011 10 16 0.00 0.00
10:55 pm 22:55 Clear 52 11 37 3 58 58 S 12 19 29.83 1010 10 16 0.00 0.00
11:15 pm 23:15 Clear 52 11 37 3 58 58 SSW 9 15 29.83 1010 10 16 0.00 0.00
11:35 pm 23:35 Clear 50 10 37 3 62 62 S 10 17 29.85 1011 10 16 0.00 0.00
11:55 pm 23:55 Clear 48 9 37 3 66 66 S 12 19 29.85 1011 10 16 0.00 0.00

Powered by AerisWeather